Find Starlink 11429

NORAD ID: 62061 Int'l Des: 2024-217 Owner: SPXS Country: US Constellation: starlink operational
又名: STARLINK-11429 [DTC] celestrak
LEOCIRCULAR

当前视图

正在加载3D地球...

About Starlink 11429

Starlink 11429 (NORAD 62061) is a starlink constellation satellite (v2 mini d2c) launched Nov 24, 2024 by SPXS of US. It operates in LEO, CIRCULAR orbit with a mass of 960.00 kg.

即将过境

Passes for default location (London). Set your location on the main map for personalized predictions.

高度历史

Loading altitude history...

两行轨道根数

1 62061U 24217E 26265.49889767 .00111801 00000-0 91397-3 0 9994
2 62061 53.1573 181.1327 0001150 93.9744 266.1405 15.69744525106084
Epoch: Sep 22, 2026 • Age: 16 hours

当前状态

高度 362.6 km
远地点 / 近地点 N/A
速度 7.70 km/s
星下点 42.04°N, 165.76°E
发射日期 Nov 24, 2024
运行时间 1.8 years
类型 internet

技术详情

分类 Payload
质量 960.00 kg
干质量 910.00 kg
长度 0.30 m
跨度 29.00 m
形状 ? Box + pan
制造商 SPXS
平台类型 Starlink V2MD
阶段状态 In Orbit
所有者/国家 SPXS/US

Most Searched